sat.trackr.live / text

‹ back to catalog

KUIPER-00546

NORAD 69614 · 2026-140Y

PAYLOAD ACTIVE UNKNOWN

§ Identity

Operator
Country
US
Launch date
2026-06-17
Launch site
FRGUI
Launch vehicle
Mass (kg)
RCS (m²)

External: N2YO · Heavens-Above · Gunter

§ Orbital elements

Epoch: 2026-09-20T04:00:03.000096Z

Period
97.18 min
Inclination
51.9004°
Eccentricity
0.0015011
Mean motion
14.81753148 rev/d
Perigee alt
613.3 km
Apogee alt
634.3 km
Semi-major
7,001.9 km
B*
-8.1303e-3
RAAN
305.6894°
Arg perigee
124.9388°
Mean anomaly
187.8795°
Rev number
270

§ Raw data

KUIPER-005461 69614U 26140Y   26263.16670139 -.00064487  00000+0 -81303-2 0  99982 69614  51.9004 305.6894 0015011 124.9388 187.8795 14.81753148  2701

JSON: /api/v1/satellites/69614 · /tle

For live sub-satellite position, see the globe view (requires WebGL).

§ Visibility from observer

Set your observer location to see the next 7 days of passes ≥ 10°. The values pass through the URL so the page stays shareable.

No JS? Fill the form by hand. The geolocation button needs JavaScript.